Погода в Колесниково

Россия / Курганская область     55°19′28″N   65°32′22″E
темп.,
°C
ветер,
м/с
пор.,
м/с
влажн.,
%
обл.,
%
осадки,
мм/ч
давл.,
гПа
погр.,
м
19 апреля, пн
пн1923:00−3ссв711400 0.0 10291076
02:00−4ссв611410 0.0 1031992
05:00−6ссв58450 0.0 1033911
08:00−5св57380 0.0 10341059
11:00−2ссв56305 0.0 10341532
14:00+1ссв562863 0.0 10332053
17:00+1ссв5729100 0.0 10322201
20:00−2всв224512 0.0 103319
20 апреля, вт
вт2023:00−3всв12485 0.0 103410
02:00−4всв11510 0.0 103310
05:00−4с11500 0.0 103410
08:00−1сз22385 0.0 1034435
11:00+2сз332846 0.0 10331276
14:00+5зсз35275 0.0 10311643
17:00+6зсз57315 0.0 10291740
20:00+3зюз34480 0.0 102853
21 апреля, ср
ср2123:00+1з35595 0.0 102881
02:00+1з34625 0.0 102860
05:000сз34735 0.0 102855
08:00+4ссз46615 0.0 1030292
11:00+9ссз46525 0.0 10301139
14:00+11ссв564587 0.0 10301868
17:00+10ссв555232 0.0 10321289
20:00+6всв34622 0.0 103352
22 апреля, чт
чт2223:00+5всв22650 0.0 103511
02:00+3юв22720 0.0 103623
05:00+2юв34740 0.0 103745
08:00+5ююв46570 0.0 1038279
11:00+9ююв56423 0.0 10381013
14:00+12ю55367 0.0 10381547
17:00+13ю5535100 0.0 10371594
20:00+9ююв4848100 0.0 1037163
23 апреля, пт
пт2323:00+7ююв51151100 0.0 1037250
02:00+6ююв51155100 0.0 1037220
05:00+5ю4106389 0.0 1037180
08:00+8ю5954100 0.0 1037345
11:00+12ю6740100 0.0 1036871
14:00+14ю6733100 0.0 10351617
17:00+13ю5632100 0.0 10341654
20:00+10ююв3743100 0.0 1034145